| time (UTC) | temp C | wind direction | speed KPH | gust KPH | rain 1hr cm | rain 24hr cm | rain mn cm | humidity % | barometer mb |
| 20260507203210 | 17 | 201 | 1.6 | 3.2 | 0.00 | 0.00 | 0.00 | 61 | 1019.4 |
| 20260507202706 | 15 | 285 | 4.8 | 4.8 | 0.00 | 0.00 | 0.00 | 66 | 1019.5 |
| 20260507202202 | 15 | 348 | 4.8 | 8.0 | 0.00 | 0.00 | 0.00 | 66 | 1019.6 |
| 20260507201657 | 15 | 257 | 4.8 | 4.8 | 0.00 | 0.00 | 0.00 | 68 | 1019.8 |
| 20260507201154 | 15 | 260 | 9.7 | 11.3 | 0.00 | 0.00 | 0.00 | 65 | 1019.7 |
| 20260507200650 | 15 | 267 | 4.8 | 4.8 | 0.00 | 0.00 | 0.00 | 66 | 1019.5 |
| 20260507200146 | 15 | 176 | 3.2 | 3.2 | 0.00 | 0.00 | 0.00 | 67 | 1019.8 |
| 20260507195643 | 16 | 214 | 6.4 | 8.0 | 0.00 | 0.00 | 0.00 | 63 | 1019.8 |
| 20260507195140 | 16 | 107 | 4.8 | 8.0 | 0.00 | 0.00 | 0.00 | 63 | 1019.8 |
| 20260507194637 | 16 | 41 | 3.2 | 3.2 | 0.00 | 0.00 | 0.00 | 64 | 1019.7 |
| 20260507194132 | 16 | 348 | 1.6 | 1.6 | 0.00 | 0.00 | 0.00 | 64 | 1019.8 |
| 20260507193630 | 16 | 261 | 0.0 | 1.6 | 0.00 | 0.00 | 0.00 | 62 | 1020.0 |
| 20260507193127 | 16 | 273 | 0.0 | 1.6 | 0.00 | 0.00 | 0.00 | 65 | 1020.0 |
| 20260507192623 | 16 | 161 | 1.6 | 3.2 | 0.00 | 0.00 | 0.00 | 64 | 1019.9 |
| 20260507192120 | 15 | 304 | 0.0 | 1.6 | 0.00 | 0.00 | 0.00 | 66 | 1019.9 |
| 20260507191616 | 15 | 271 | 1.6 | 4.8 | 0.00 | 0.00 | 0.00 | 67 | 1019.7 |
| 20260507191112 | 15 | 257 | 4.8 | 4.8 | 0.00 | 0.00 | 0.00 | 66 | 1020.0 |
| 20260507190610 | 15 | 297 | 8.0 | 9.7 | 0.00 | 0.00 | 0.00 | 65 | 1020.1 |
| 20260507190109 | 15 | 253 | 4.8 | 4.8 | 0.00 | 0.00 | 0.00 | 68 | 1020.1 |
| 20260507185607 | 15 | 217 | 8.0 | 9.7 | 0.00 | 0.00 | 0.00 | 67 | 1020.1 |
| 20260507185103 | 15 | 229 | 1.6 | 1.6 | 0.00 | 0.00 | 0.00 | 67 | 1020.2 |
| 20260507184601 | 15 | 197 | 4.8 | 4.8 | 0.00 | 0.00 | 0.00 | 65 | 1020.1 |
| 20260507184059 | 15 | 162 | 9.7 | 11.3 | 0.00 | 0.00 | 0.00 | 67 | 1020.2 |
| 20260507183554 | 14 | 125 | 0.0 | 1.6 | 0.00 | 0.00 | 0.00 | 69 | 1020.2 |
| 20260507183052 | 15 | 115 | 4.8 | 8.0 | 0.00 | 0.00 | 0.00 | 68 | 1020.1 |
| 20260507182548 | 14 | 198 | 9.7 | 12.9 | 0.00 | 0.00 | 0.00 | 68 | 1020.0 |
| 20260507182044 | 13 | 172 | 8.0 | 9.7 | 0.00 | 0.00 | 0.00 | 71 | 1020.2 |
| 20260507181541 | 13 | 162 | 11.3 | 11.3 | 0.00 | 0.00 | 0.00 | 73 | 1020.1 |
| 20260507181037 | 15 | 192 | 6.4 | 8.0 | 0.00 | 0.00 | 0.00 | 70 | 1020.1 |
| 20260507180534 | 15 | 224 | 1.6 | 4.8 | 0.00 | 0.00 | 0.00 | 67 | 1020.1 |
| 20260507180031 | 15 | 278 | 3.2 | 4.8 | 0.00 | 0.00 | 0.00 | 70 | 1020.3 |
| 20260507175527 | 15 | 186 | 8.0 | 11.3 | 0.00 | 0.00 | 0.00 | 68 | 1020.2 |
| 20260507175025 | 15 | 197 | 6.4 | 9.7 | 0.00 | 0.00 | 0.00 | 70 | 1020.3 |
| 20260507174521 | 15 | 268 | 9.7 | 12.9 | 0.00 | 0.00 | 0.00 | 69 | 1020.2 |
| 20260507174019 | 15 | 236 | 6.4 | 9.7 | 0.00 | 0.00 | 0.00 | 71 | 1020.5 |
| 20260507173516 | 14 | 237 | 4.8 | 4.8 | 0.00 | 0.00 | 0.00 | 72 | 1020.4 |
| 20260507173014 | 15 | 189 | 8.0 | 9.7 | 0.00 | 0.00 | 0.00 | 71 | 1020.2 |
| 20260507172509 | 14 | 152 | 8.0 | 9.7 | 0.00 | 0.00 | 0.00 | 73 | 1020.5 |
| 20260507172006 | 15 | 264 | 3.2 | 8.0 | 0.00 | 0.00 | 0.00 | 71 | 1020.5 |
| 20260507171502 | 13 | 258 | 4.8 | 8.0 | 0.00 | 0.00 | 0.00 | 75 | 1020.4 |
| 20260507171000 | 13 | 257 | 11.3 | 12.9 | 0.00 | 0.00 | 0.00 | 75 | 1020.4 |
| 20260507170456 | 13 | 229 | 8.0 | 9.7 | 0.00 | 0.00 | 0.00 | 76 | 1020.5 |
| 20260507165952 | 13 | 227 | 4.8 | 4.8 | 0.00 | 0.00 | 0.00 | 76 | 1020.3 |
| 20260507165448 | 13 | 226 | 8.0 | 11.3 | 0.00 | 0.00 | 0.00 | 77 | 1020.2 |
| 20260507164944 | 13 | 230 | 1.6 | 3.2 | 0.00 | 0.00 | 0.00 | 78 | 1020.4 |
| 20260507164441 | 12 | 193 | 4.8 | 4.8 | 0.00 | 0.00 | 0.00 | 80 | 1020.6 |
| 20260507163938 | 12 | 214 | 6.4 | 9.7 | 0.00 | 0.00 | 0.00 | 80 | 1020.6 |
| 20260507163435 | 12 | 197 | 12.9 | 14.5 | 0.00 | 0.00 | 0.00 | 78 | 1020.6 |
| 20260507162932 | 12 | 204 | 6.4 | 8.0 | 0.00 | 0.00 | 0.00 | 79 | 1020.6 |
| 20260507162427 | 12 | 201 | 8.0 | 11.3 | 0.00 | 0.00 | 0.00 | 80 | 1020.4 |
| 20260507161925 | 12 | 187 | 4.8 | 4.8 | 0.00 | 0.00 | 0.00 | 79 | 1020.5 |
| 20260507161421 | 12 | 238 | 6.4 | 8.0 | 0.00 | 0.00 | 0.00 | 80 | 1020.3 |
| 20260507160918 | 12 | 252 | 4.8 | 8.0 | 0.00 | 0.00 | 0.00 | 81 | 1020.7 |
| 20260507160414 | 12 | 275 | 8.0 | 9.7 | 0.00 | 0.00 | 0.00 | 79 | 1020.6 |
| 20260507155910 | 12 | 238 | 1.6 | 3.2 | 0.00 | 0.00 | 0.00 | 81 | 1020.6 |
| 20260507155406 | 12 | 260 | 1.6 | 1.6 | 0.00 | 0.00 | 0.00 | 81 | 1020.5 |
| 20260507154903 | 12 | 270 | 3.2 | 3.2 | 0.00 | 0.00 | 0.00 | 82 | 1020.6 |
| 20260507154400 | 11 | 204 | 4.8 | 4.8 | 0.00 | 0.00 | 0.00 | 84 | 1020.7 |
| 20260507153857 | 11 | 259 | 4.8 | 4.8 | 0.00 | 0.00 | 0.00 | 84 | 1021.0 |
| 20260507153353 | 11 | 236 | 4.8 | 4.8 | 0.00 | 0.00 | 0.00 | 84 | 1020.7 |
| 20260507152850 | 12 | 234 | 4.8 | 8.0 | 0.00 | 0.00 | 0.00 | 84 | 1020.7 |
| 20260507152347 | 12 | 273 | 3.2 | 4.8 | 0.00 | 0.00 | 0.00 | 84 | 1020.7 |
| 20260507151843 | 11 | 285 | 1.6 | 3.2 | 0.00 | 0.00 | 0.00 | 86 | 1020.7 |
| 20260507151339 | 11 | 268 | 4.8 | 8.0 | 0.00 | 0.00 | 0.00 | 86 | 1020.7 |
| 20260507150836 | 11 | 260 | 3.2 | 3.2 | 0.00 | 0.00 | 0.00 | 86 | 1020.7 |
| 20260507150333 | 11 | 267 | 9.7 | 11.3 | 0.00 | 0.00 | 0.00 | 86 | 1020.6 |
| 20260507145829 | 10 | 246 | 4.8 | 4.8 | 0.00 | 0.00 | 0.00 | 87 | 1020.6 |
| 20260507145325 | 11 | 238 | 4.8 | 8.0 | 0.00 | 0.00 | 0.00 | 87 | 1020.5 |
| 20260507144823 | 11 | 275 | 8.0 | 9.7 | 0.00 | 0.00 | 0.00 | 87 | 1020.6 |
| 20260507144320 | 11 | 254 | 6.4 | 8.0 | 0.00 | 0.00 | 0.00 | 88 | 1020.6 |
| 20260507143816 | 10 | 273 | 3.2 | 3.2 | 0.00 | 0.00 | 0.00 | 89 | 1020.8 |
| 20260507143314 | 10 | 263 | 0.0 | 1.6 | 0.00 | 0.00 | 0.00 | 90 | 1020.6 |
| 20260507142809 | 10 | 231 | 1.6 | 1.6 | 0.00 | 0.00 | 0.00 | 90 | 1020.4 |
| 20260507142307 | 10 | 243 | 3.2 | 4.8 | 0.00 | 0.00 | 0.00 | 90 | 1020.7 |
| 20260507141803 | 10 | 210 | 3.2 | 3.2 | 0.00 | 0.00 | 0.00 | 90 | 1020.6 |
| 20260507141300 | 10 | 201 | 6.4 | 8.0 | 0.00 | 0.00 | 0.00 | 90 | 1020.5 |
| 20260507140756 | 10 | 234 | 1.6 | 1.6 | 0.00 | 0.00 | 0.00 | 90 | 1020.4 |
| 20260507140253 | 10 | 286 | 1.6 | 1.6 | 0.00 | 0.00 | 0.00 | 90 | 1020.4 |
| 20260507135750 | 10 | 276 | 1.6 | 3.2 | 0.00 | 0.00 | 0.00 | 90 | 1020.4 |
| 20260507135248 | 10 | 242 | 1.6 | 3.2 | 0.00 | 0.00 | 0.00 | 90 | 1020.6 |
| 20260507134744 | 10 | 258 | 1.6 | 1.6 | 0.00 | 0.00 | 0.00 | 90 | 1020.4 |
| 20260507134241 | 10 | 249 | 4.8 | 8.0 | 0.00 | 0.00 | 0.00 | 91 | 1020.5 |
| 20260507133736 | 10 | 271 | 1.6 | 1.6 | 0.00 | 0.00 | 0.00 | 91 | 1020.3 |
| 20260507133233 | 10 | 270 | 3.2 | 3.2 | 0.00 | 0.00 | 0.00 | 91 | 1020.2 |
| 20260507132731 | 10 | 252 | 4.8 | 8.0 | 0.00 | 0.00 | 0.00 | 91 | 1020.5 |
| 20260507132227 | 10 | 262 | 3.2 | 3.2 | 0.00 | 0.00 | 0.00 | 91 | 1020.4 |
| 20260507131724 | 10 | 251 | 4.8 | 4.8 | 0.00 | 0.00 | 0.00 | 91 | 1020.3 |
| 20260507131221 | 10 | 282 | 3.2 | 3.2 | 0.00 | 0.00 | 0.00 | 90 | 1020.5 |
| 20260507130718 | 10 | 278 | 3.2 | 4.8 | 0.00 | 0.00 | 0.00 | 90 | 1020.1 |
| 20260507130216 | 10 | 291 | 1.6 | 1.6 | 0.00 | 0.00 | 0.00 | 90 | 1020.4 |
| 20260507125714 | 10 | 279 | 0.0 | 0.0 | 0.00 | 0.00 | 0.00 | 90 | 1020.6 |
| 20260507125212 | 10 | 269 | 0.0 | 0.0 | 0.00 | 0.00 | 0.00 | 90 | 1020.4 |
| 20260507124708 | 10 | 267 | 0.0 | 1.6 | 0.00 | 0.00 | 0.00 | 90 | 1020.3 |
| 20260507124205 | 10 | 267 | 0.0 | 0.0 | 0.00 | 0.00 | 0.00 | 89 | 1020.3 |
| 20260507123703 | 10 | 264 | 1.6 | 1.6 | 0.00 | 0.00 | 0.00 | 89 | 1020.3 |
| 20260507123200 | 10 | 258 | 3.2 | 3.2 | 0.00 | 0.00 | 0.00 | 89 | 1020.5 |
| 20260507122655 | 10 | 249 | 1.6 | 1.6 | 0.00 | 0.00 | 0.00 | 89 | 1020.6 |
| 20260507122151 | 10 | 250 | 0.0 | 0.0 | 0.00 | 0.00 | 0.00 | 89 | 1020.5 |
| 20260507121648 | 10 | 247 | 0.0 | 0.0 | 0.00 | 0.00 | 0.00 | 89 | 1020.5 |
| 20260507121144 | 10 | 247 | 0.0 | 0.0 | 0.00 | 0.00 | 0.00 | 89 | 1020.6 |
| 20260507120640 | 10 | 235 | 0.0 | 0.0 | 0.00 | 0.00 | 0.00 | 89 | 1020.5 |
| 20260507120137 | 10 | 235 | 0.0 | 0.0 | 0.00 | 0.00 | 0.00 | 89 | 1020.6 |
| 20260507115633 | 10 | 233 | 1.6 | 1.6 | 0.00 | 0.00 | 0.00 | 88 | 1020.5 |
| 20260507115128 | 10 | 204 | 6.4 | 8.0 | 0.00 | 0.00 | 0.00 | 89 | 1020.5 |
| 20260507114625 | 10 | 236 | 1.6 | 1.6 | 0.00 | 0.00 | 0.00 | 88 | 1020.5 |
| 20260507114122 | 10 | 227 | 0.0 | 1.6 | 0.00 | 0.00 | 0.00 | 88 | 1020.4 |
| 20260507113619 | 10 | 198 | 6.4 | 8.0 | 0.00 | 0.00 | 0.00 | 88 | 1020.6 |
| 20260507113116 | 10 | 217 | 4.8 | 4.8 | 0.00 | 0.00 | 0.00 | 88 | 1020.7 |
| 20260507112614 | 10 | 211 | 6.4 | 8.0 | 0.00 | 0.00 | 0.00 | 88 | 1020.7 |
| 20260507112111 | 10 | 183 | 9.7 | 11.3 | 0.00 | 0.00 | 0.00 | 88 | 1020.8 |
| 20260507111608 | 10 | 203 | 3.2 | 3.2 | 0.00 | 0.00 | 0.00 | 87 | 1021.0 |
| 20260507111104 | 10 | 207 | 8.0 | 9.7 | 0.00 | 0.00 | 0.00 | 87 | 1020.8 |
| 20260507110601 | 10 | 206 | 6.4 | 8.0 | 0.00 | 0.00 | 0.00 | 88 | 1020.7 |
| 20260507110057 | 10 | 196 | 4.8 | 4.8 | 0.00 | 0.00 | 0.00 | 87 | 1020.9 |
| 20260507105554 | 10 | 214 | 4.8 | 4.8 | 0.00 | 0.00 | 0.00 | 87 | 1020.9 |
| 20260507105050 | 11 | 174 | 6.4 | 9.7 | 0.00 | 0.00 | 0.00 | 88 | 1020.9 |
| 20260507104548 | 11 | 211 | 4.8 | 4.8 | 0.00 | 0.00 | 0.00 | 88 | 1020.9 |
| 20260507104044 | 11 | 196 | 6.4 | 8.0 | 0.00 | 0.00 | 0.00 | 88 | 1020.9 |
| 20260507103540 | 11 | 206 | 4.8 | 4.8 | 0.00 | 0.00 | 0.00 | 88 | 1020.9 |
| 20260507103037 | 11 | 216 | 1.6 | 1.6 | 0.00 | 0.00 | 0.00 | 88 | 1021.1 |
| 20260507102534 | 11 | 225 | 0.0 | 0.0 | 0.00 | 0.00 | 0.00 | 88 | 1021.0 |
| 20260507102031 | 11 | 198 | 6.4 | 8.0 | 0.00 | 0.00 | 0.00 | 88 | 1021.1 |
| 20260507101525 | 11 | 174 | 8.0 | 9.7 | 0.00 | 0.00 | 0.00 | 88 | 1021.0 |
| 20260507101022 | 11 | 202 | 3.2 | 3.2 | 0.00 | 0.00 | 0.00 | 88 | 1020.9 |
| 20260507100519 | 11 | 185 | 8.0 | 8.0 | 0.00 | 0.00 | 0.00 | 88 | 1021.0 |
| 20260507100017 | 11 | 176 | 8.0 | 11.3 | 0.00 | 0.00 | 0.00 | 88 | 1021.0 |
| 20260507095515 | 11 | 167 | 4.8 | 4.8 | 0.00 | 0.00 | 0.00 | 88 | 1021.1 |
| 20260507095011 | 11 | 201 | 4.8 | 4.8 | 0.00 | 0.00 | 0.00 | 89 | 1021.2 |
| 20260507094508 | 11 | 199 | 4.8 | 8.0 | 0.00 | 0.00 | 0.00 | 89 | 1021.1 |
| 20260507094005 | 10 | 223 | 0.0 | 1.6 | 0.00 | 0.00 | 0.00 | 89 | 1021.1 |
| 20260507093502 | 10 | 202 | 4.8 | 4.8 | 0.00 | 0.00 | 0.00 | 89 | 1021.1 |
| 20260507093001 | 10 | 210 | 3.2 | 3.2 | 0.00 | 0.00 | 0.00 | 90 | 1021.1 |
| 20260507092456 | 10 | 202 | 1.6 | 4.8 | 0.00 | 0.00 | 0.00 | 90 | 1020.9 |
| 20260507091953 | 10 | 206 | 3.2 | 4.8 | 0.00 | 0.00 | 0.00 | 90 | 1020.9 |
| 20260507091450 | 10 | 207 | 1.6 | 1.6 | 0.00 | 0.00 | 0.00 | 90 | 1021.0 |
| 20260507090946 | 10 | 276 | 0.0 | 0.0 | 0.00 | 0.00 | 0.00 | 90 | 1020.8 |
| 20260507090442 | 10 | 191 | 4.8 | 4.8 | 0.00 | 0.00 | 0.00 | 90 | 1021.1 |
| 20260507085939 | 10 | 214 | 1.6 | 3.2 | 0.00 | 0.00 | 0.00 | 90 | 1021.0 |
| 20260507085436 | 10 | 251 | 1.6 | 3.2 | 0.00 | 0.00 | 0.00 | 90 | 1021.0 |
| 20260507084933 | 10 | 271 | 3.2 | 3.2 | 0.00 | 0.00 | 0.00 | 90 | 1021.3 |
| 20260507084430 | 10 | 255 | 0.0 | 1.6 | 0.00 | 0.00 | 0.00 | 91 | 1021.1 |
| 20260507083927 | 10 | 215 | 0.0 | 0.0 | 0.00 | 0.00 | 0.00 | 91 | 1021.0 |
| 20260507083423 | 10 | 194 | 9.7 | 11.3 | 0.00 | 0.00 | 0.00 | 91 | 1021.0 |
| 20260507082919 | 10 | 208 | 4.8 | 8.0 | 0.00 | 0.00 | 0.00 | 91 | 1021.0 |
| 20260507082416 | 11 | 235 | 1.6 | 3.2 | 0.00 | 0.00 | 0.00 | 92 | 1020.9 |
| 20260507081913 | 10 | 216 | 3.2 | 3.2 | 0.00 | 0.00 | 0.00 | 92 | 1020.9 |
| 20260507081409 | 10 | 251 | 0.0 | 0.0 | 0.00 | 0.00 | 0.00 | 92 | 1021.1 |
| 20260507080906 | 11 | 224 | 4.8 | 4.8 | 0.00 | 0.00 | 0.00 | 92 | 1020.7 |
| 20260507080402 | 11 | 235 | 3.2 | 3.2 | 0.00 | 0.00 | 0.00 | 92 | 1020.7 |
| 20260507075857 | 11 | 191 | 3.2 | 4.8 | 0.00 | 0.00 | 0.00 | 92 | 1020.8 |
| 20260507075353 | 11 | 265 | 1.6 | 3.2 | 0.00 | 0.00 | 0.00 | 92 | 1020.9 |
| 20260507074850 | 11 | 254 | 1.6 | 1.6 | 0.00 | 0.00 | 0.00 | 92 | 1020.8 |
| 20260507074347 | 11 | 222 | 1.6 | 1.6 | 0.00 | 0.00 | 0.00 | 92 | 1020.9 |
| 20260507073844 | 11 | 210 | 4.8 | 4.8 | 0.00 | 0.00 | 0.00 | 92 | 1020.8 |
| 20260507073341 | 11 | 233 | 4.8 | 8.0 | 0.00 | 0.00 | 0.00 | 92 | 1020.6 |
| 20260507072838 | 11 | 204 | 9.7 | 11.3 | 0.00 | 0.00 | 0.00 | 92 | 1020.7 |
| 20260507072336 | 11 | 242 | 1.6 | 3.2 | 0.00 | 0.00 | 0.00 | 92 | 1020.6 |
| 20260507071833 | 11 | 223 | 4.8 | 4.8 | 0.00 | 0.00 | 0.00 | 92 | 1020.9 |
| 20260507071330 | 11 | 220 | 1.6 | 1.6 | 0.00 | 0.00 | 0.00 | 92 | 1020.6 |
| 20260507070826 | 11 | 214 | 9.7 | 11.3 | 0.00 | 0.00 | 0.00 | 92 | 1020.7 |
| 20260507070324 | 11 | 204 | 4.8 | 4.8 | 0.00 | 0.00 | 0.00 | 92 | 1020.6 |
| 20260507065820 | 11 | 243 | 1.6 | 3.2 | 0.00 | 0.00 | 0.00 | 92 | 1020.6 |
| 20260507065317 | 11 | 188 | 12.9 | 16.1 | 0.00 | 0.00 | 0.00 | 91 | 1020.9 |
| 20260507064814 | 11 | 176 | 6.4 | 8.0 | 0.00 | 0.00 | 0.00 | 91 | 1020.7 |
| 20260507064313 | 11 | 201 | 6.4 | 9.7 | 0.00 | 0.00 | 0.00 | 91 | 1020.6 |
| 20260507063810 | 11 | 196 | 9.7 | 11.3 | 0.00 | 0.00 | 0.00 | 91 | 1020.6 |
| 20260507063307 | 11 | 213 | 1.6 | 3.2 | 0.00 | 0.00 | 0.00 | 91 | 1020.6 |
| 20260507062804 | 11 | 196 | 3.2 | 4.8 | 0.00 | 0.00 | 0.00 | 91 | 1020.6 |
| 20260507062301 | 11 | 202 | 11.3 | 11.3 | 0.00 | 0.00 | 0.00 | 91 | 1020.6 |
| 20260507061759 | 11 | 200 | 3.2 | 4.8 | 0.00 | 0.00 | 0.00 | 91 | 1020.7 |
| 20260507061256 | 11 | 194 | 4.8 | 4.8 | 0.00 | 0.00 | 0.00 | 91 | 1020.8 |
| 20260507060754 | 11 | 215 | 8.0 | 11.3 | 0.00 | 0.00 | 0.00 | 90 | 1020.6 |
| 20260507060251 | 11 | 217 | 4.8 | 4.8 | 0.00 | 0.00 | 0.00 | 90 | 1020.8 |
| 20260507055747 | 11 | 171 | 8.0 | 9.7 | 0.00 | 0.00 | 0.00 | 90 | 1020.8 |
| 20260507055243 | 11 | 201 | 11.3 | 11.3 | 0.00 | 0.00 | 0.00 | 90 | 1020.6 |
| 20260507054739 | 11 | 208 | 4.8 | 8.0 | 0.00 | 0.00 | 0.00 | 90 | 1020.8 |
| 20260507054236 | 11 | 201 | 8.0 | 8.0 | 0.00 | 0.00 | 0.00 | 90 | 1020.7 |
| 20260507053733 | 12 | 190 | 6.4 | 9.7 | 0.00 | 0.00 | 0.00 | 90 | 1020.8 |
| 20260507053231 | 12 | 206 | 3.2 | 3.2 | 0.00 | 0.00 | 0.00 | 89 | 1020.9 |
| 20260507052730 | 12 | 226 | 1.6 | 1.6 | 0.00 | 0.00 | 0.00 | 89 | 1020.7 |
| 20260507052225 | 12 | 212 | 1.6 | 3.2 | 0.00 | 0.00 | 0.00 | 89 | 1020.7 |
| 20260507051724 | 12 | 200 | 6.4 | 8.0 | 0.00 | 0.00 | 0.00 | 89 | 1020.8 |
| 20260507051220 | 12 | 238 | 4.8 | 8.0 | 0.00 | 0.00 | 0.00 | 89 | 1020.7 |
| 20260507050717 | 12 | 204 | 6.4 | 8.0 | 0.00 | 0.00 | 0.00 | 88 | 1020.7 |
| 20260507050214 | 12 | 198 | 6.4 | 8.0 | 0.00 | 0.00 | 0.00 | 88 | 1020.9 |
| 20260507045711 | 12 | 207 | 3.2 | 3.2 | 0.00 | 0.00 | 0.00 | 87 | 1020.9 |
| 20260507045207 | 12 | 180 | 8.0 | 11.3 | 0.00 | 0.00 | 0.00 | 87 | 1020.8 |
| 20260507044704 | 12 | 195 | 1.6 | 4.8 | 0.00 | 0.00 | 0.00 | 87 | 1020.8 |
| 20260507044201 | 12 | 214 | 1.6 | 1.6 | 0.00 | 0.00 | 0.00 | 87 | 1020.9 |
| 20260507043657 | 12 | 214 | 4.8 | 4.8 | 0.00 | 0.00 | 0.00 | 86 | 1020.9 |
| 20260507043154 | 12 | 199 | 11.3 | 12.9 | 0.00 | 0.00 | 0.00 | 86 | 1020.8 |
| 20260507042650 | 12 | 246 | 1.6 | 1.6 | 0.00 | 0.00 | 0.00 | 86 | 1020.8 |
| 20260507042145 | 12 | 221 | 6.4 | 8.0 | 0.00 | 0.00 | 0.00 | 86 | 1020.9 |
| 20260507041643 | 12 | 219 | 4.8 | 4.8 | 0.00 | 0.00 | 0.00 | 86 | 1020.6 |
| 20260507041139 | 12 | 216 | 6.4 | 8.0 | 0.00 | 0.00 | 0.00 | 86 | 1020.7 |
| 20260507040636 | 12 | 200 | 6.4 | 8.0 | 0.00 | 0.00 | 0.00 | 85 | 1020.5 |
| 20260507040132 | 12 | 178 | 6.4 | 9.7 | 0.00 | 0.00 | 0.00 | 85 | 1020.8 |
| 20260507035628 | 12 | 201 | 6.4 | 8.0 | 0.00 | 0.00 | 0.00 | 85 | 1020.6 |
| 20260507035124 | 12 | 203 | 1.6 | 3.2 | 0.00 | 0.00 | 0.00 | 85 | 1020.5 |
| 20260507034621 | 12 | 190 | 4.8 | 4.8 | 0.00 | 0.00 | 0.00 | 84 | 1020.5 |
| 20260507034119 | 13 | 200 | 3.2 | 3.2 | 0.00 | 0.00 | 0.00 | 84 | 1020.5 |
| 20260507033617 | 13 | 260 | 4.8 | 4.8 | 0.00 | 0.00 | 0.00 | 84 | 1020.5 |
| 20260507033114 | 13 | 196 | 6.4 | 8.0 | 0.00 | 0.00 | 0.00 | 83 | 1020.4 |
| 20260507032611 | 13 | 285 | 4.8 | 4.8 | 0.00 | 0.00 | 0.00 | 83 | 1020.4 |
| 20260507032107 | 13 | 250 | 0.0 | 0.0 | 0.00 | 0.00 | 0.00 | 83 | 1020.3 |
| 20260507031604 | 13 | 246 | 1.6 | 3.2 | 0.00 | 0.00 | 0.00 | 82 | 1020.2 |
| 20260507031101 | 13 | 259 | 1.6 | 1.6 | 0.00 | 0.00 | 0.00 | 82 | 1020.4 |
| 20260507030557 | 13 | 214 | 4.8 | 8.0 | 0.00 | 0.00 | 0.00 | 82 | 1020.4 |
| 20260507030056 | 13 | 252 | 4.8 | 4.8 | 0.00 | 0.00 | 0.00 | 82 | 1020.3 |
| 20260507025552 | 13 | 228 | 3.2 | 3.2 | 0.00 | 0.00 | 0.00 | 82 | 1020.3 |
| 20260507025049 | 13 | 212 | 4.8 | 8.0 | 0.00 | 0.00 | 0.00 | 82 | 1020.3 |
| 20260507024547 | 13 | 179 | 3.2 | 8.0 | 0.00 | 0.00 | 0.00 | 82 | 1020.2 |
| 20260507024044 | 13 | 231 | 4.8 | 9.7 | 0.00 | 0.00 | 0.00 | 82 | 1020.2 |
| 20260507023539 | 13 | 268 | 1.6 | 1.6 | 0.00 | 0.00 | 0.00 | 82 | 1020.3 |
| 20260507023038 | 13 | 276 | 4.8 | 8.0 | 0.00 | 0.00 | 0.00 | 81 | 1020.0 |
| 20260507022534 | 13 | 227 | 0.0 | 1.6 | 0.00 | 0.00 | 0.00 | 81 | 1019.9 |
| 20260507022029 | 13 | 209 | 3.2 | 4.8 | 0.00 | 0.00 | 0.00 | 81 | 1020.1 |
| 20260507021525 | 13 | 210 | 0.0 | 0.0 | 0.00 | 0.00 | 0.00 | 81 | 1020.1 |
| 20260507021022 | 13 | 216 | 8.0 | 11.3 | 0.00 | 0.00 | 0.00 | 81 | 1020.0 |
| 20260507020520 | 13 | 231 | 3.2 | 3.2 | 0.00 | 0.00 | 0.00 | 81 | 1019.8 |
| 20260507020016 | 13 | 206 | 6.4 | 8.0 | 0.00 | 0.00 | 0.00 | 81 | 1019.9 |
| 20260507015515 | 13 | 230 | 4.8 | 8.0 | 0.00 | 0.00 | 0.00 | 81 | 1019.9 |
| 20260507015012 | 13 | 234 | 1.6 | 1.6 | 0.00 | 0.00 | 0.00 | 81 | 1020.2 |
| 20260507014508 | 13 | 243 | 4.8 | 4.8 | 0.00 | 0.00 | 0.00 | 81 | 1020.1 |
| 20260507014004 | 13 | 254 | 1.6 | 3.2 | 0.00 | 0.00 | 0.00 | 82 | 1020.2 |
| 20260507013501 | 13 | 227 | 6.4 | 9.7 | 0.00 | 0.00 | 0.00 | 82 | 1020.2 |
| 20260507012958 | 13 | 212 | 12.9 | 16.1 | 0.00 | 0.00 | 0.00 | 81 | 1020.1 |
| 20260507012455 | 13 | 272 | 3.2 | 4.8 | 0.00 | 0.00 | 0.00 | 81 | 1020.2 |
| 20260507011951 | 13 | 223 | 4.8 | 4.8 | 0.00 | 0.00 | 0.00 | 82 | 1020.0 |
| 20260507011448 | 13 | 175 | 6.4 | 9.7 | 0.00 | 0.00 | 0.00 | 82 | 1020.1 |
| 20260507010944 | 13 | 191 | 8.0 | 9.7 | 0.00 | 0.00 | 0.00 | 81 | 1020.0 |
| 20260507010439 | 13 | 189 | 9.7 | 12.9 | 0.00 | 0.00 | 0.00 | 81 | 1020.2 |
| 20260507005936 | 13 | 212 | 4.8 | 4.8 | 0.00 | 0.00 | 0.00 | 81 | 1020.1 |
| 20260507005433 | 13 | 214 | 8.0 | 9.7 | 0.00 | 0.00 | 0.00 | 81 | 1020.2 |
| 20260507004930 | 13 | 203 | 8.0 | 11.3 | 0.00 | 0.00 | 0.00 | 81 | 1020.1 |
| 20260507004427 | 13 | 155 | 1.6 | 4.8 | 0.00 | 0.00 | 0.00 | 81 | 1020.2 |
| 20260507003924 | 13 | 221 | 8.0 | 12.9 | 0.00 | 0.00 | 0.00 | 81 | 1020.1 |
| 20260507003419 | 13 | 190 | 9.7 | 12.9 | 0.00 | 0.00 | 0.00 | 81 | 1020.4 |
| 20260507002914 | 13 | 199 | 4.8 | 4.8 | 0.00 | 0.00 | 0.00 | 81 | 1020.3 |
| 20260507002411 | 13 | 245 | 6.4 | 9.7 | 0.00 | 0.00 | 0.00 | 81 | 1020.1 |
| 20260507001908 | 13 | 200 | 11.3 | 12.9 | 0.00 | 0.00 | 0.00 | 81 | 1020.2 |
| 20260507001405 | 13 | 197 | 6.4 | 9.7 | 0.00 | 0.00 | 0.00 | 81 | 1020.2 |
| 20260507000902 | 13 | 203 | 6.4 | 8.0 | 0.00 | 0.00 | 0.00 | 80 | 1020.2 |
| 20260507000358 | 13 | 201 | 4.8 | 8.0 | 0.00 | 0.00 | 0.00 | 81 | 1020.2 |
| 20260506235853 | 13 | 228 | 4.8 | 8.0 | 0.00 | 0.00 | 0.00 | 81 | 1020.0 |
| 20260506235351 | 13 | 205 | 6.4 | 9.7 | 0.00 | 0.00 | 0.00 | 80 | 1020.2 |
| 20260506234846 | 13 | 272 | 3.2 | 3.2 | 0.00 | 0.00 | 0.00 | 80 | 1020.1 |
| 20260506234344 | 13 | 205 | 14.5 | 14.5 | 0.00 | 0.00 | 0.00 | 80 | 1020.2 |
| 20260506233842 | 13 | 198 | 12.9 | 14.5 | 0.00 | 0.00 | 0.00 | 81 | 1020.5 |
| 20260506233337 | 13 | 205 | 8.0 | 11.3 | 0.00 | 0.00 | 0.00 | 81 | 1020.4 |
| 20260506232834 | 13 | 210 | 4.8 | 8.0 | 0.00 | 0.00 | 0.00 | 80 | 1020.4 |
| 20260506232330 | 13 | 252 | 4.8 | 9.7 | 0.00 | 0.00 | 0.00 | 80 | 1020.4 |
| 20260506231827 | 13 | 190 | 8.0 | 11.3 | 0.00 | 0.00 | 0.00 | 80 | 1020.5 |
| 20260506231325 | 13 | 188 | 8.0 | 9.7 | 0.00 | 0.00 | 0.00 | 80 | 1020.4 |
| 20260506230822 | 13 | 199 | 14.5 | 17.7 | 0.00 | 0.00 | 0.00 | 80 | 1020.4 |
| 20260506230318 | 13 | 214 | 1.6 | 3.2 | 0.00 | 0.00 | 0.00 | 81 | 1020.4 |
| 20260506225814 | 13 | 181 | 8.0 | 11.3 | 0.00 | 0.00 | 0.00 | 80 | 1020.5 |
| 20260506225312 | 13 | 271 | 4.8 | 8.0 | 0.00 | 0.00 | 0.00 | 80 | 1020.6 |
| 20260506224809 | 13 | 197 | 11.3 | 12.9 | 0.00 | 0.00 | 0.00 | 80 | 1020.3 |
| 20260506224306 | 13 | 187 | 14.5 | 20.9 | 0.00 | 0.00 | 0.00 | 80 | 1020.4 |
| 20260506223802 | 13 | 257 | 4.8 | 12.9 | 0.00 | 0.00 | 0.00 | 80 | 1020.3 |
| 20260506223257 | 13 | 201 | 11.3 | 20.9 | 0.00 | 0.00 | 0.00 | 78 | 1020.4 |
| 20260506222754 | 13 | 264 | 6.4 | 8.0 | 0.00 | 0.00 | 0.00 | 79 | 1020.5 |
| 20260506222249 | 13 | 236 | 14.5 | 16.1 | 0.00 | 0.00 | 0.00 | 78 | 1020.4 |
| 20260506221743 | 13 | 221 | 9.7 | 12.9 | 0.00 | 0.00 | 0.00 | 78 | 1020.6 |
| 20260506221240 | 13 | 238 | 8.0 | 9.7 | 0.00 | 0.00 | 0.00 | 77 | 1020.5 |
| 20260506220737 | 14 | 288 | 4.8 | 4.8 | 0.00 | 0.00 | 0.00 | 77 | 1020.2 |
| 20260506220232 | 13 | 204 | 11.3 | 12.9 | 0.00 | 0.00 | 0.00 | 76 | 1020.5 |
| 20260506215729 | 14 | 163 | 9.7 | 12.9 | 0.00 | 0.00 | 0.00 | 76 | 1020.6 |
| 20260506215225 | 13 | 204 | 11.3 | 14.5 | 0.00 | 0.00 | 0.00 | 76 | 1020.6 |
| 20260506214721 | 14 | 257 | 9.7 | 12.9 | 0.00 | 0.00 | 0.00 | 75 | 1020.4 |
| 20260506214219 | 14 | 210 | 11.3 | 12.9 | 0.00 | 0.00 | 0.00 | 75 | 1020.5 |
| 20260506213717 | 13 | 224 | 8.0 | 12.9 | 0.00 | 0.00 | 0.00 | 76 | 1020.7 |
| 20260506213214 | 13 | 196 | 16.1 | 17.7 | 0.00 | 0.00 | 0.00 | 77 | 1020.5 |
| 20260506212711 | 13 | 199 | 8.0 | 11.3 | 0.00 | 0.00 | 0.00 | 76 | 1020.7 |
| 20260506212206 | 13 | 203 | 9.7 | 11.3 | 0.00 | 0.00 | 0.00 | 76 | 1020.6 |
| 20260506211702 | 14 | 192 | 4.8 | 8.0 | 0.00 | 0.00 | 0.00 | 76 | 1020.7 |
| 20260506211158 | 14 | 196 | 4.8 | 9.7 | 0.00 | 0.00 | 0.00 | 76 | 1020.6 |
| 20260506210655 | 13 | 246 | 6.4 | 8.0 | 0.00 | 0.00 | 0.00 | 76 | 1020.7 |
| 20260506210152 | 14 | 236 | 9.7 | 11.3 | 0.00 | 0.00 | 0.00 | 76 | 1020.5 |
| 20260506205649 | 13 | 284 | 8.0 | 11.3 | 0.00 | 0.00 | 0.00 | 77 | 1020.4 |
| 20260506205144 | 13 | 224 | 8.0 | 12.9 | 0.00 | 0.00 | 0.00 | 77 | 1020.6 |
| 20260506204642 | 13 | 258 | 16.1 | 16.1 | 0.00 | 0.00 | 0.00 | 76 | 1020.5 |
| 20260506204139 | 14 | 259 | 6.4 | 8.0 | 0.00 | 0.00 | 0.00 | 76 | 1020.5 |
| 20260506203637 | 14 | 275 | 4.8 | 4.8 | 0.00 | 0.00 | 0.00 | 76 | 1020.4 |